OBJECT E, 64532

Orbit data source: Space-Track

You're viewing an Uncataloged Satellite

Recently launched and/or uncataloged satellites may have evolving metadata. Metadata may include but not limited to: Owner, Maufacturer, Bus, Motor, and Mission.

OBJECT E, 64532 is a satellite in SSO that was launched on Mon, 23 Jun 2025 UTC via an FALCON 9 launch vehicle from the Air Force Western Test Range (AFWTR). Unknown objects in Earth's orbit typically refer to objects detected orbiting the Earth but have not yet been identified or cataloged. These objects could be anything from previously untracked satellites, spent rocket stages, debris from satellite collisions, or even natural meteoroids temporarily captured by Earth's gravity.

Loading next visibility...
Identifier
64532, 2025-135E
Orbit
SSO
Country
Flag of TBDTBD
Related business
None
Manufacturer
Unknown
Mission
Operational Amateur Technology
Bus & Motor
Unknown
Mass
Unknown
Launch date (UTC)
2025-06-23 (7 months ago)
Launch vehicle
FALCON 9
Launch site
Air Force Western Test Range (AFWTR)
Object type
Unknown
Shape & HBR
Box, 0.1 m
Radar Cross Section
0.015 m², Small (<0.1 m²)

Expand to show TLE details & history
Last TLE update: 11 hours ago

TLE from 11 hours ago
0 OBJECT E
1 64532U 25135E   26035.82169837  .00014964  00000-0  64071-3 0  9991
2 64532  97.4596 152.4928 0003808 271.5188  88.5612 15.22883789 34756
Epoch: 2026-02-04T19:43Z
TLE epoch observation values (Epoch: 2026-02-04T19:43:14.739Z)
Latitude
-0.00003°
Longitude
81.69862°
Altitude
500.175 km
Speed
7.614 km/s
True Right ascension
10h 09m 58s
True Declination
0° 00' 00"
Sunlit
Object was in full shadow at epoch
Visualization orbit readout
Latitude
Unknown
Longitude
Unknown
Altitude
Unknown
Speed
Unknown
Apparent Right ascension
Unknown
Apparent Declination
Unknown
Sunlit
N/A
Visualization observer readout
Local Sidereal Time
09:13:29
Azimuth
Unknown
Elevation
Unknown
Doppler factor
Unknown
Orbital elements
Apogee altitude
496.729 km
Perigee altitude
491.495 km
Semi-major axis
6,872.249 km
Eccentricity
0.00038
Inclination
97.4596°
RAAN
152.4928°
Arg. of periapsis
271.5188°
True anomaly
88.60482°
Mean anomaly
88.5612°
Eccentric anomaly
88.58301°
Mean motion
3.80974 °/min
Orbital period
94.49 mins
BSTAR
0.00064071
Loading maneuver chart data...
Computing Atmospheric mass density...
Loading historical data...
Loading historical data...
Loading historical data...
Loading historical data...
Loading historical data...
Loading historical data...
Loading historical data...

Documentation

Showing up to 5 results
|